EST,Max TemperatureF,Mean TemperatureF,Min TemperatureF,Max Dew PointF,MeanDew PointF,Min DewpointF,Max Humidity, Mean Humidity, Min Humidity, Max Sea Level PressureIn, Mean Sea Level PressureIn, Min Sea Level PressureIn, Max VisibilityMiles, Mean VisibilityMiles, Min VisibilityMiles, Max Wind SpeedMPH, Mean Wind SpeedMPH, Max Gust SpeedMPH,PrecipitationIn, CloudCover, Events, WindDirDegrees
2012-11-1,39,36,33,36,33,28,100,87,70,29.82,29.71,29.66,10,8,2,20,11,26,0.00,8,Rain-Snow,315
2012-11-2,37,34,30,30,29,28,100,84,75,30.14,29.99,29.82,10,9,2,17,8,24,0.00,8,Snow,332
2012-11-3,33,32,30,30,28,27,100,87,75,30.23,30.21,30.14,10,10,4,10,3,,0.00,8,Snow,357
2012-11-4,39,34,30,30,27,25,93,82,65,30.24,30.22,30.20,10,10,10,10,2,18,0.00,8,,347
2012-11-5,33,30,26,23,20,18,80,71,56,30.30,30.24,30.13,10,10,10,10,6,,0.00,7,,78
2012-11-6,37,34,30,32,28,23,93,80,75,30.12,30.00,29.95,10,10,2,10,6,,0.00,8,Snow,114
2012-11-7,42,38,33,32,30,28,87,77,61,30.14,30.10,30.01,10,10,10,13,5,17,0.00,8,,132
2012-11-8,44,40,37,39,36,32,100,84,66,30.13,30.07,29.99,10,9,2,18,5,24,0.00,7,Rain,194
2012-11-9,44,37,30,41,37,28,93,85,76,30.18,30.11,30.02,10,10,7,12,5,,0.00,7,,308
2012-11-10,46,40,33,46,36,30,100,92,81,30.19,30.06,29.86,10,7,2,21,8,29,0.00,8,Rain,93
2012-11-11,60,53,46,54,50,45,100,87,72,29.87,29.77,29.65,10,8,1,31,11,40,0.00,5,Rain,169
2012-11-12,51,38,24,50,29,16,100,85,69,30.05,29.85,29.70,10,7,1,20,12,28,0.00,8,Rain-Snow,247
2012-11-13,39,31,23,28,23,18,93,78,48,30.42,30.29,30.06,10,9,1,16,12,24,0.00,2,Snow,232
2012-11-14,41,32,24,36,30,23,93,82,70,30.45,30.40,30.32,10,10,10,16,5,22,0.00,6,Rain,185
2012-11-15,46,40,35,41,38,32,93,84,75,30.33,30.26,30.20,10,10,7,22,12,32,0.00,7,,197
2012-11-16,39,32,26,30,23,18,86,69,42,30.51,30.46,30.34,10,10,10,8,4,,0.00,0,,341
2012-11-17,44,32,21,41,30,18,100,85,64,30.51,30.48,30.46,10,8,0,13,3,17,0.00,4,Fog,160
2012-11-18,51,43,35,43,36,34,100,83,58,30.47,30.41,30.33,10,8,1,15,7,17,0.00,1,,159
2012-11-19,50,44,39,41,38,36,93,82,66,30.33,30.23,30.11,10,10,7,12,8,16,0.00,4,,157
2012-11-20,50,44,39,45,41,37,100,89,76,30.16,30.10,30.07,10,7,1,7,4,,0.00,7,,207
2012-11-21,48,44,41,45,43,39,100,92,87,30.15,30.06,29.92,5,3,2,18,6,26,0.00,7,,193
2012-11-22,55,50,44,46,45,45,100,84,67,29.92,29.72,29.50,10,7,2,30,16,43,0.00,1,,194
2012-11-23,50,38,26,46,30,23,100,90,86,29.94,29.62,29.42,10,4,0,23,14,43,0.00,8,Rain-Snow,281
2012-11-24,26,25,24,23,20,18,86,78,69,30.08,30.01,29.92,10,9,1,14,9,29,0.00,8,Snow,302
2012-11-25,28,24,21,27,22,19,100,89,80,29.91,29.79,29.71,10,7,0,15,4,21,0.00,8,Snow,232
2012-11-26,24,22,17,21,20,16,100,85,74,30.24,30.11,29.91,10,9,2,18,9,24,0.00,7,Snow,260
2012-11-27,30,21,12,27,19,10,93,87,69,30.25,30.15,30.03,10,7,1,22,11,26,0.00,7,Snow,219
2012-11-28,26,17,8,25,18,7,93,81,68,30.20,30.13,30.01,10,9,2,17,10,24,0.00,7,Snow,253
2012-11-29,26,22,19,25,19,16,100,84,69,30.32,30.20,30.08,10,9,3,14,8,20,0.00,7,,9
2012-11-30,21,18,14,19,14,10,93,83,73,30.38,30.34,30.29,10,10,10,17,9,22,0.00,7,,75